Cloud_Cover
5 5 5 5 12 15 14 24 22 10 0 0 0 0 0 0 0 0 0 0 0 0 0 2 3 38 5 5 1 0 0 0 0 0 5 5 1 0 0 0 0 0 0 1 6
0 4 5 5 5 12 22 23 23 26 0 0 0 0 0 0 0 0 0 0 0 0 0 0 0 3 56 5 0 0 0 0 0 0 4 0 0 0 0 0 0 0 0 31 64
3 5 5 5 5 4 6 26 25 24 1 0 0 0 0 0 0 0 0 0 0 0 0 0 0 0 5 5 0 0 0 0 0 0 0 0 0 0 0 0 0 0 7 100 12
10 5 5 5 5 5 0 0 14 20 8 0 0 0 0 0 0 0 0 0 0 0 0 0 0 0 0 2 0 0 0 0 0 0 0 0 0 0 0 0 0 0 29 100 100
5 5 5 5 5 5 0 0 0 8 20 0 0 0 0 0 0 0 0 0 0 0 0 0 0 0 0 0 0 0 0 0 0 0 0 0 0 0 0 2 0 2 32 97 100
5 5 5 5 5 5 0 0 0 0 23 5 0 0 0 0 0 0 0 0 0 0 0 0 0 0 0 0 0 0 0 0 0 0 0 0 0 0 78 13 2 1 67 100 84
5 5 5 5 5 5 0 0 0 13 25 9 0 0 0 0 0 0 0 0 0 0 0 0 0 0 0 0 0 0 0 0 0 0 0 0 8 90 95 11 14 0 21 21 57
5 5 5 5 5 5 0 0 0 4 8 0 0 0 0 0 0 0 0 0 0 0 0 0 0 0 0 0 0 0 0 0 0 0 0 0 24 100 94 24 15 0 0 0 0
5 5 5 5 5 5 5 5 5 2 0 0 0 0 0 0 0 0 0 0 0 0 0 0 0 0 0 0 0 0 0 0 0 0 0 0 38 100 86 48 14 1 0 0 0
5 5 3 5 5 5 14 5 5 5 0 0 0 0 0 0 0 0 0 0 0 0 0 0 0 0 0 0 0 0 0 0 0 0 0 0 47 99 62 0 0 0 0 37 47
3 5 22 5 5 6 25 37 5 2 0 0 0 0 0 0 0 0 0 0 0 0 0 0 0 0 0 0 0 0 0 0 0 0 4 3 97 100 54 0 0 0 2 28 69
11 5 5 5 10 38 5 5 5 5 3 0 0 0 0 0 0 0 0 0 0 0 0 0 0 0 0 0 0 0 0 0 0 0 7 100 100 100 44 0 0 0 0 0 15
30 14 5 9 5 5 5 2 4 3 4 0 0 0 0 0 0 0 0 0 0 0 0 0 0 0 0 0 0 0 0 0 0 0 27 40 95 100 58 7 0 0 0 0 14
6 20 23 79 3 5 5 3 0 0 0 0 0 0 0 0 0 0 0 0 0 0 0 0 0 0 0 0 0 0 0 0 0 0 18 0 4 47 64 18 0 0 4 0 0
5 15 38 68 38 5 5 2 0 3 5 0 0 0 0 0 0 0 0 0 0 0 0 0 0 0 0 0 0 0 0 0 0 0 0 0 0 0 0 5 0 5 5 5 0
4 41 86 5 98 8 5 1 0 0 0 0 0 0 0 0 0 0 0 0 0 0 0 0 0 0 0 0 0 0 0 0 0 0 0 0 0 0 30 0 0 0 1 0 0
32 23 77 16 14 8 5 4 2 0 0 0 0 0 0 0 0 0 0 0 0 0 0 0 0 0 0 0 0 0 0 0 0 0 0 0 0 0 0 0 0 0 0 0 0
29 0 2 3 2 5 5 4 4 5 0 0 0 0 0 0 0 0 0 0 0 0 0 0 0 0 0 0 0 0 0 0 0 0 0 0 0 0 0 0 0 0 0 0 0
3 0 0 0 5 1 0 0 0 0 0 0 0 0 0 0 0 0 0 0 0 0 0 0 0 0 0 0 0 0 0 0 0 0 0 0 0 0 0 0 0 0 0 0 0
95 24 0 0 0 0 0 0 3 0 0 0 0 0 0 0 0 0 0 2 0 0 0 0 0 0 0 0 0 0 0 0 0 0 0 0 0 0 0 0 0 0 0 0 0
21 0 0 0 0 0 3 5 1 0 4 5 0 0 3 1 0 0 0 0 0 0 0 0 0 0 0 0 1 0 0 0 0 0 0 0 0 0 0 0 0 0 0 0 0
2 0 0 0 0 0 0 5 0 0 6 49 5 5 2 5 0 0 0 0 0 0 0 0 0 0 0 0 1 0 5 2 0 0 0 0 0 0 0 0 0 0 0 0 0
12 0 0 0 0 0 0 0 0 0 5 73 100 11 5 5 0 0 0 0 0 0 0 1 1 4 0 0 2 5 5 5 1 0 0 0 0 0 0 0 0 0 0 0 0
5 0 0 3 3 0 0 0 0 0 0 5 92 77 36 4 5 2 0 0 0 0 0 6 37 0 0 5 68 30 1 0 0 0 0 0 0 0 0 0 0 0 0 0 0
7 0 2 23 22 8 3 0 0 0 0 0 57 64 100 88 5 5 0 4 3 5 5 5 4 5 5 5 5 4 0 0 0 0 0 0 0 0 0 0 0 0 0 0 0
27 95 50 0 5 5 0 0 0 0 0 0 0 8 89 100 100 100 46 5 76 97 88 22 8 6 5 5 4 5 0 0 0 0 0 0 0 0 0 0 0 0 0 0 0
13 5 100 1 3 4 5 5 5 5 0 12 5 5 5 56 100 100 100 97 98 32 100 100 100 24 12 5 5 1 0 0 0 0 0 0 0 0 0 0 0 0 0 0 5